sat.trackr.live / text

‹ back to catalog

STARLINK-5530

NORAD 56494 · 2023-064AY

PAYLOAD ACTIVE UNKNOWN

§ Identity

Operator
Country
US
Launch date
2023-05-10
Launch site
AFWTR
Launch vehicle
Mass (kg)
RCS (m²)

Purposes: comms

External: N2YO · Heavens-Above · Gunter

§ Orbital elements

Epoch: 2026-09-20T13:34:18.647904Z

Period
96.11 min
Inclination
70.0002°
Eccentricity
0.0003192
Mean motion
14.98329623 rev/d
Perigee alt
569.8 km
Apogee alt
574.3 km
Semi-major
6,950.2 km
B*
4.3443e-5
RAAN
333.0816°
Arg perigee
268.5250°
Mean anomaly
91.5544°
Rev number
18,541

§ Raw data

STARLINK-55301 56494U 23064AY  26263.56549361  .00000425  00000+0  43443-4 0  99932 56494  70.0002 333.0816 0003192 268.5250  91.5544 14.98329623185410

JSON: /api/v1/satellites/56494 · /tle

For live sub-satellite position, see the globe view (requires WebGL).

§ Visibility from observer

Set your observer location to see the next 7 days of passes ≥ 10°. The values pass through the URL so the page stays shareable.

No JS? Fill the form by hand. The geolocation button needs JavaScript.